TimeMST,TemperatureF,Dew PointF,Humidity,Sea Level PressureIn,VisibilityMPH,Wind Direction,Wind SpeedMPH,Gust SpeedMPH,PrecipitationIn,Events,Conditions,WindDirDegrees,DateUTC
12:53 AM,-6.0,-14.1,68,30.27,10.0,WNW,6.9,-,N/A,,Overcast,290,2013-01-30 07:53:00
1:53 AM,-5.1,-14.1,65,30.25,10.0,WSW,6.9,-,N/A,,Overcast,240,2013-01-30 08:53:00
2:53 AM,-5.1,-13.0,69,30.23,10.0,WSW,6.9,-,N/A,,Overcast,250,2013-01-30 09:53:00
3:53 AM,-6.0,-13.0,72,30.22,10.0,WNW,5.8,-,N/A,,Clear,290,2013-01-30 10:53:00
4:53 AM,-5.1,-11.9,72,30.20,10.0,Calm,Calm,-,N/A,,Clear,0,2013-01-30 11:53:00
5:53 AM,-4.0,-11.9,69,30.18,10.0,NW,4.6,-,N/A,,Partly Cloudy,310,2013-01-30 12:53:00
6:53 AM,-4.0,-11.9,69,30.17,10.0,Calm,Calm,-,N/A,,Mostly Cloudy,0,2013-01-30 13:53:00
7:53 AM,-4.0,-11.0,72,30.16,10.0,Calm,Calm,-,N/A,,Mostly Cloudy,0,2013-01-30 14:53:00
8:53 AM,-2.9,-11.0,68,30.16,10.0,East,3.5,-,N/A,,Mostly Cloudy,80,2013-01-30 15:53:00
9:53 AM,-2.9,-11.0,68,30.15,10.0,East,5.8,-,N/A,,Scattered Clouds,80,2013-01-30 16:53:00
10:53 AM,-2.0,-11.0,66,30.15,10.0,ESE,3.5,-,N/A,,Overcast,110,2013-01-30 17:53:00
11:53 AM,-0.9,-9.9,66,30.14,10.0,East,3.5,-,N/A,,Overcast,100,2013-01-30 18:53:00
12:53 PM,-0.0,-8.0,69,30.12,10.0,Calm,Calm,-,N/A,,Overcast,0,2013-01-30 19:53:00
1:48 PM,-0.4,-7.6,72,29.95,1.8,Calm,Calm,-,0.00,Snow,Light Snow,0,2013-01-30 20:48:00
1:53 PM,-0.0,-8.0,69,30.12,1.5,Calm,Calm,-,0.00,Snow,Light Snow,0,2013-01-30 20:53:00
2:03 PM,1.4,-7.6,66,29.94,3.0,Calm,Calm,-,0.00,Snow,Light Snow,0,2013-01-30 21:03:00
2:53 PM,1.9,-6.0,69,30.13,10.0,Calm,Calm,-,0.00,,Overcast,0,2013-01-30 21:53:00
3:53 PM,1.9,-6.0,69,30.13,7.0,WSW,5.8,-,0.00,Snow,Light Snow,250,2013-01-30 22:53:00
4:09 PM,1.4,-5.8,72,29.98,2.0,WSW,5.8,-,0.00,Snow,Light Snow,250,2013-01-30 23:09:00
4:22 PM,1.4,-5.8,72,29.98,1.8,West,5.8,-,0.00,Snow,Light Snow,260,2013-01-30 23:22:00
4:43 PM,1.4,-4.0,78,29.99,1.0,SW,4.6,-,0.00,Snow,Light Snow,230,2013-01-30 23:43:00
4:53 PM,1.9,-2.9,80,30.16,0.8,WSW,3.5,-,0.00,Snow,Light Snow,250,2013-01-30 23:53:00
5:17 PM,3.2,-2.2,78,30.00,1.2,West,8.1,-,0.00,Snow,Light Snow,270,2013-01-31 00:17:00
5:29 PM,3.2,-2.2,78,30.00,2.0,West,3.5,-,0.00,Snow,Light Snow,280,2013-01-31 00:29:00
5:41 PM,3.2,-2.2,78,30.01,1.2,WNW,5.8,-,0.00,Snow,Light Snow,300,2013-01-31 00:41:00
5:50 PM,3.2,-2.2,78,30.02,1.0,NNE,9.2,19.6,0.00,Snow,Light Snow,30,2013-01-31 00:50:00
5:53 PM,1.9,-2.9,80,30.18,1.0,NE,12.7,-,0.00,Snow,Light Snow,40,2013-01-31 00:53:00
6:00 PM,1.4,-5.8,72,30.02,2.0,NE,11.5,-,0.00,Snow,Light Snow,40,2013-01-31 01:00:00
6:06 PM,-0.4,-5.8,78,30.02,3.0,NE,10.4,-,0.00,Snow,Light Snow,40,2013-01-31 01:06:00
6:53 PM,-0.9,-9.0,69,30.22,10.0,North,12.7,-,0.00,,Overcast,10,2013-01-31 01:53:00
7:53 PM,-2.9,-11.0,68,30.25,10.0,North,8.1,-,N/A,,Overcast,360,2013-01-31 02:53:00
8:53 PM,-5.1,-13.0,69,30.30,6.0,North,18.4,-,N/A,,Haze,350,2013-01-31 03:53:00
9:53 PM,-7.1,-14.1,72,30.34,8.0,North,13.8,-,N/A,,Overcast,350,2013-01-31 04:53:00
10:53 PM,-8.0,-17.0,65,30.38,10.0,NNW,10.4,-,N/A,,Overcast,340,2013-01-31 05:53:00
11:53 PM,-9.0,-18.0,65,30.41,10.0,NNW,15.0,-,N/A,,Overcast,340,2013-01-31 06:53:00